[Date Prev][Date Next][Thread Prev][Thread Next] - [Date Index][Thread Index][Author Index]

2 Line ISS Keps 2-18



ISS
1 25544U 98067A   05049.32352153  .00029242  00000-0  24244-3 0  8393
2 25544  51.6449 148.7872 0004571 112.9046   6.6299 15.69954849356992
----
Via the sarex mailing list at AMSAT.ORG courtesy of AMSAT-NA.
To unsubscribe, send "unsubscribe sarex" to Majordomo@amsat.org



AMSAT Top AMSAT Home